Regional Weather Roundup
Issued by NWS

Home | Current Version | Previous Version | Text Only | Print | Product List | Glossary On
Versions: 1 2 3 4 5 6 7 8 9 10 11 12 13 14 15 16 17 18 19 20 21 22 23 24 25 26 27 28 29 30 31 32 33 34 35 36 37 38 39 40 41 42 43 44 45 46 47 48 49 50
000
ASUS45 KPSR 241510
RWRAZ

ARIZONA HOURLY REGIONAL WEATHER ROUNDUP
NATIONAL WEATHER SERVICE PHOENIX AZ
800 AM MST MON JUL 24 2017

NOTE: FAIR INDICATES FEW OR NO CLOUDS BELOW 12,000 FEET WITH NO
SIGNIFICANT WEATHER AND/OR OBSTRUCTIONS TO VISIBILITY.

AZZ001>003-036-241600-
NORTHWEST ARIZONA

CITY           SKY/WX    TMP DP  RH WIND       PRES   REMARKS
BULLHEAD CITY  PTSUNNY   91  64  40 SW7       29.86
KINGMAN        CLOUDY    75  65  70 SE15      30.05R
$$

AZZ004>008-015-016-018-241600-
NORTH CENTRAL ARIZONA

CITY           SKY/WX    TMP DP  RH WIND       PRES   REMARKS
GRAND CANYON   CLOUDY    65  59  81 E3        30.29S
WILLIAMS       CLOUDY    63  59  88 SE5       30.30S
PRESCOTT       CLOUDY    67  66  97 CALM      30.19R
FLAGSTAFF      LGT RAIN  59  58  96 S5        30.33R
PAYSON         DRIZZLE   66  64  94 CALM      30.20R
PAGE           CLOUDY    77  60  55 S6        30.11R
$$

AZZ009>014-017-241600-
NORTHEAST ARIZONA

CITY           SKY/WX    TMP DP  RH WIND       PRES   REMARKS
WINSLOW        CLOUDY    70  64  81 SE8       30.19R
SAINT JOHNS    SUNNY     69  60  73 S6        30.21S
WINDOW ROCK    CLOUDY    64  57  78 N3        30.30S
SHOW LOW       MOSUNNY   66  55  68 NE7       30.26S
$$

AZZ540-542>544-546-548-241600-
GREATER PHOENIX AREA

CITY           SKY/WX    TMP DP  RH WIND       PRES   REMARKS
PHOENIX        CLOUDY    77  72  84 E14       29.92R
BUCKEYE        CLOUDY    77  77 100 SE7       29.94R
GLENDALE       CLOUDY    81  81 100 CALM      29.94R
LUKE AFB       DRIZZLE   82  71  69 SE3       29.92R
DEER VALLEY    CLOUDY    77  69  76 E15G25    29.94R
SCOTTSDALE     LGT RAIN  76  69  79 VRB6      29.96R
MESA-FALCON    RAIN      73  73 100 NE14      29.95R
MESA-GATEWAY   CLOUDY    75  73  94 NE9       29.96R
CHANDLER       CLOUDY    77  73  88 N14       29.94R
$$

AZZ539-553-241600-
SOUTHWEST MARICOPA COUNTY AND PINAL COUNTY

CITY           SKY/WX    TMP DP  RH WIND       PRES   REMARKS
CASA GRANDE    LGT RAIN  75  74  96 SW15      29.97R
GILA BEND      LGT RAIN  81  73  78 SE17      29.91R
$$

AZZ503-504-507>509-241600-
SOUTHEAST ARIZONA

CITY           SKY/WX    TMP DP  RH WIND       PRES   REMARKS
TUCSON         PTSUNNY   77  70  79 SE6       30.03R
DAVIS-MONTHAN  PTSUNNY   78  71  79 S3        30.02R
RYAN FIELD     SUNNY     77  72  83 CALM      30.01R
NOGALES        MOSUNNY   74  66  76 CALM      30.10S
SIERRA VISTA   CLOUDY    72  66  82 E5        30.15S
DOUGLAS        MOSUNNY   72  68  87 SE5       30.12R
SAFFORD        CLOUDY    74  68  81 E7        30.04R
$$

AZZ532-241600-
SOUTHWEST ARIZONA

CITY           SKY/WX    TMP DP  RH WIND       PRES   REMARKS
YUMA           CLOUDY    86  70  58 SE13      29.83R
$$

CAZ041-043-047-048-061-525>527-560>570-241600-
SOUTHERN CALIFORNIA

CITY           SKY/WX    TMP DP  RH WIND       PRES   REMARKS
DOWNTOWN L.A.  SUNNY     73  64  73 CALM      29.90S
L.A. AIRPORT   PTSUNNY   70  64  81 SE5       29.91S
SAN DIEGO      CLOUDY    71  64  78 SW5       29.94R
BURBANK        SUNNY     70  61  73 CALM      29.92R
ONTARIO        PTSUNNY   72  62  71 SW3       29.93R
RIVERSIDE      PTSUNNY   71  63  75 W3        29.93R
PALM SPRINGS   PTSUNNY   85  66  53 CALM      29.87R
EL CENTRO NAS  CLOUDY    84  75  74 E5        29.83R
IMPERIAL       CLOUDY    86  72  62 SE7       29.81R
BLYTHE         PTSUNNY   88  66  48 S9        29.85R
NEEDLES        MOSUNNY   93  66  40 S8        29.87S
$$

NVZ020-UTZ003-241600-
SOUTHERN NEVADA-UTAH

CITY           SKY/WX    TMP DP  RH WIND       PRES   REMARKS
LAS VEGAS      PTSUNNY   88  62  41 VRB5      29.92R
SALT LAKE CITY PTSUNNY   81  52  36 SE7       30.02S
$$

NMZ009-TXZ055-241600-
NEW MEXICO-WEST TEXAS

CITY           SKY/WX    TMP DP  RH WIND       PRES   REMARKS
ALBUQUERQUE    CLOUDY    74  57  55 W3        30.22S
EL PASO        MOSUNNY   75  69  81 N8        30.12R
$$


........................KEY........................
SKY/WX - SKY CONDITION/WEATHER
TMP    - TEMPERATURE IN FAHRENHEIT
DP     - DEW POINT IN FAHRENHEIT
RH     - RELATIVE HUMIDITY IN PERCENT
WIND   - DIRECTION AND SPEED IN MILES PER HOUR (MPH)
VRB    - VARIABLE WIND DIRECTION
PRES   - MEAN SEA LEVEL PRESSURE IN INCHES OF MERCURY
         F - FALLING PRESSURE   R - RISING PRESSURE
         S - STEADY PRESSURE
VSB    - VISIBILITY IN MILES
HX     - HEAT INDEX IN FAHRENHEIT
WCI    - WIND CHILL INDEX IN FAHRENHEIT
TC     - TEMPERATURE IN CELSIUS WHICH IS ALSO KNOWN AS
         TEMPERATURE IN CENTIGRADE
AFB    - AIR FORCE BASE
         LUKE AFB IS LUKE AIR FORCE BASE
         DAVIS-MONTHAN IS DAVIS-MONTHAN AIR FORCE BASE
NAS    - NAVAL AIR STATION
         EL CENTRO NAS IS EL CENTRO NAVAL AIR STATION
N/A    - NOT AVAILABLE




USA.gov is the U.S. government's official web portal to all federal, state and local government web resources and services.